Regional Weather Roundup
Issued by NWS

Home | Current Version | Previous Version | Graphics & Text | Print | Product List | Glossary On
Versions: 1 2 3 4 5 6 7 8 9 10 11 12 13 14 15 16 17 18 19 20 21 22 23 24 25 26 27 28 29 30 31 32 33 34 35 36 37 38 39 40 41 42 43 44 45 46 47 48 49 50
000
ASUS43 KMPX 271101
RWRMN
WEATHER ROUNDUP FOR MINNESOTA
NATIONAL WEATHER SERVICE TWIN CITIES/CHANHASSEN MN
600 AM CDT WED MAY 27 2015


NOTE: "FAIR" INDICATES FEW OR NO CLOUDS BELOW 12,000 FEET WITH NO
SIGNIFICANT WEATHER AND/OR OBSTRUCTIONS TO VISIBILITY. N/A MEANS
CURRENT SKY AND/OR WEATHER CONDITIONS ARE NOT AVAILABLE.

MNZ060>063-068>070-271200-
   Twin Cities Metro

CITY           SKY/WX    TMP DP  RH WIND       PRES   REMARKS
TWIN CITIES    CLOUDY    56  55  97 SW5       29.88R FOG
ST PAUL        CLOUDY    54  54 100 CALM      29.88R FOG
CRYSTAL        CLOUDY    54  53  97 SW5       29.86R FOG
BLAINE         CLOUDY    55  55 100 SW3       29.87R FOG
LAKEVILLE      LGT RAIN  55  54  94 SW3       29.89R
EDEN PRAIRIE   CLOUDY    55  54  96 SW6       29.88R FOG
SOUTH ST PAUL  CLOUDY    55  54  95 CALM      29.88R FOG
LAKE ELMO      FOG       52  52 100 CALM      29.89R VSB 1/4
$$
MNZ001>005-007-008-013>017-022>024-027-028-271200-
   Northwest Minnesota

CITY           SKY/WX    TMP DP  RH WIND       PRES   REMARKS
BEMIDJI        CLEAR     51  48  90 W3        29.83R
HALLOCK        PTCLDY    54  43  66 N14       29.88R
ROSEAU         CLEAR     54  46  76 NW3       29.84R
WARROAD        CLEAR     52  45  76 CALM      29.84R
THIEF RVR FALL MOCLDY    57  48  72 N8        29.85R
CROOKSTON      CLEAR     55  48  76 N8        29.85R
FOSSTON        PTCLDY    50  48  93 CALM      29.84R
DETROIT LAKES  CLEAR     54  52  94 CALM      29.86R
MOORHEAD       CLEAR     52  48  87 W3        29.87R
PARK RAPIDS    CLEAR     51  48  89 CALM      29.83R
MAHNOMEN       CLOUDY    52  50  92 W7        29.84R
$$
MNZ006-009>011-018-025>026-271200-
   North Central Minnesota

CITY           SKY/WX    TMP DP  RH WIND       PRES   REMARKS
BAUDETTE       CLEAR     55  49  80 NW9       29.80R
FLAG ISLAND    CLEAR     54  46  76 NW12      29.82R
INTL FALLS     CLEAR     46  45  96 CALM      29.78R
WASKISH        CLEAR     57  54  88 CALM      29.81R
BIG FORK       FOG       46  46 100 CALM      29.81R VSB 1/4
LONGVILLE      CLEAR     46  46 100 CALM      29.82R
GRAND RAPIDS     N/A     48  46  93 CALM      29.82R VSB 1/4
CRANE LAKE     MOCLDY    45  45 100 CALM      29.80R
COOK           MOCLDY    52  50  93 CALM      29.81R
WALKER         FAIR      51  50  97 CALM      29.81R
$$
MNZ012-019>021-037-271200-
   Northeast Minnesota

CITY           SKY/WX    TMP DP  RH WIND       PRES   REMARKS
DULUTH         CLOUDY    55  48  77 W9        29.80R
HIBBING        MOCLDY    47  44  90 CALM      29.80R
EVELETH        CLOUDY    52  50  93 W3        29.82R
DULUTH HARBOR  CLOUDY    54  52  94 SW13      29.80R
TWO HARBORS    CLOUDY    61  52  72 W7        29.76R
GRAND MARAIS     N/A     45  42  89 CALM      29.73R
G MARAIS ARPRT CLOUDY    55  48  76 W7        29.76S
$$
MNZ029>031-032-039>041-046>048-054>057-064-271200-
   West Central Minnesota

CITY           SKY/WX    TMP DP  RH WIND       PRES   REMARKS
FERGUS FALLS   CLEAR     52  52 100 CALM      29.87R
WHEATON        CLEAR     55  48  76 W8        29.89R
MORRIS         CLEAR     54  48  82 W5        29.86R
ALEXANDRIA     CLEAR     52  50  93 SW6       29.87R
ELBOW LAKE     FAIR      53  50  89 W5        29.86R
WADENA         CLEAR     54  52  94 SW3       29.84R
GLENWOOD       CLEAR     54  52  94 W5        29.87S
APPLETON       CLEAR     54  48  82 W7        29.88R
BENSON         CLEAR     52  48  87 CALM      29.88R
ORTONVILLE     CLEAR     57  48  72 W7        29.88R
MADISON          N/A     54  46  76 W7        29.89R
WILLMAR        FAIR      52  52 100 CALM      29.90R FOG
$$
MNZ033>034-036-042>043-049>051-058-059-271200-
   Central Minnesota

CITY           SKY/WX    TMP DP  RH WIND       PRES   REMARKS
ST CLOUD       MOCLDY    52  51  97 S3        29.86R
SAUK CENTRE    FAIR      54  52  92 CALM      29.86R
PAYNESVILLE    PTCLDY    48  48 100 CALM      29.87R FOG
AITKIN         PTCLDY    52  46  82 CALM      29.81S
PINE RIVER     CLEAR     46  46 100 CALM      29.86S
BRAINERD       CLEAR     49  49 100 S3        29.84R FOG
STAPLES        CLEAR     46  46 100 CALM      29.84R
LONG PRAIRIE   FAIR      52  52 100 CALM      29.85S
LITTLE FALLS   FOG       52  50  93 CALM      29.85R VSB 1/4
LITCHFIELD     MOCLDY    55  55 100 CALM      29.88R
BUFFALO        MOCLDY    54  53  95 CALM      29.88R
MAPLE LAKE     MOCLDY    54  53  99 CALM      29.88R FOG
$$
MNZ037-044-045-052-053-271200-
   East Central Minnesota

CITY           SKY/WX    TMP DP  RH WIND       PRES   REMARKS
PRINCETON      FOG       54  52  94 CALM      29.86R VSB 1
MORA             N/A     48  46  93 CALM      29.87R FOG
CAMBRIDGE      MOCLDY    54  46  76 CALM      29.85R HAZE
RUSH CITY      CLOUDY    51  50  97 CALM      29.85S
MOOSE LAKE     MOCLDY    46  46 100 SW5       29.81S FOG
HINCKLEY       FAIR      52  50  93 SW3       29.84S
CLOQUET        CLOUDY    55  48  76 W9        29.81S
MCGREGOR       MOCLDY    54  52  94 CALM      29.83R
$$
MNZ071>073-080-081-089-090-097-098-271200-
   Southwest Minnesota

CITY           SKY/WX    TMP DP  RH WIND       PRES   REMARKS
MONTEVIDEO     CLEAR     55  52  88 W7        29.89R
GRANITE FALLS  CLEAR     52  49  89 SW9       29.90R
CANBY          CLEAR     58  49  72 W8        29.91R
MARSHALL       CLEAR     54  46  76 W9        29.90R
REDWOOD FALLS  PTCLDY    54  51  90 SW6       29.90R
OLIVIA         PTCLDY    50  46  87 SW6       29.89R
PIPESTONE      CLEAR     52  48  87 SW7       29.95R
WINDOM         PTCLDY    54  52  94 SW5       29.93R
WORTHINGTON    CLEAR     55  46  71 W8        29.95R
JACKSON        PTCLDY    54  52  94 SW6       29.95R FOG
TRACY          CLEAR     58  51  77 W8        29.92R
SLAYTON        CLEAR     56  51  81 W14       29.95R
$$
MNZ065>067-074>077-082>085-091>093-271200-
   South Central Minnesota

CITY           SKY/WX    TMP DP  RH WIND       PRES   REMARKS
MANKATO        CLOUDY    55  54  94 SW3       29.91R
NEW ULM        MOCLDY    54  54 100 SW5       29.90R
ST JAMES       MOCLDY    57  55  94 SW8       29.92S
FAIRMONT       MOCLDY    55  52  88 W9        29.92R
GLENCOE        CLOUDY    56  55  98 SW3       29.88R
FARIBAULT      CLOUDY    55  54  94 CALM      29.91R FOG
OWATONNA       CLOUDY    55  54  94 CALM      29.90S FOG
WASECA         CLOUDY    54  52  94 SW5       29.92R FOG
ALBERT LEA     MOCLDY    55  55 100 CALM      29.92R
$$
MNZ078>079-086>088-094>096-271200-
   Southeast Minnesota

CITY           SKY/WX    TMP DP  RH WIND       PRES   REMARKS
ROCHESTER      CLOUDY    56  54  93 W12       29.91R FOG
RED WING       MOCLDY    55  55 100 CALM      29.88R FOG
STANTON        CLOUDY    55  53  92 CALM      29.88R FOG
DODGE CENTER   CLOUDY    55  55 100 W7        29.90R FOG
WINONA         CLOUDY    59  55  88 CALM      29.89R
AUSTIN         MOCLDY    55  54  94 W5        29.91R FOG
PRESTON        MOCLDY    55  53  94 W7        29.90R FOG
$$
ABBREVIATIONS USED IN REMARKS
   TC - TEMPERATURES IN CELSIUS
  WCI - WIND CHILL INDEX
   HX - HEAT INDEX
  VSB - VISIBILITY
$$


USA.gov is the U.S. government's official web portal to all federal, state and local government web resources and services.